Galliano, LA

4:15 AM CST on November 19, 2017 (GMT -0600)
Galliano

Weather History for KGAO - November, 2013

Change the Weather History Date:

Wednesday, November 13, 2013

  Actual Average (KHUM) Record (KHUM)
Temperature  
Mean Temperature 48 °F -  
Max Temperature 56 °F 72 °F 88 °F (1938)
Min Temperature 41 °F 49 °F 29 °F (1932)
Degree Days  
Heating Degree Days 16    
Moisture  
Dew Point 33 °F    
Average Humidity 58    
Maximum Humidity 76    
Minimum Humidity 38    
Precipitation  
Precipitation 0.00 in - - ()
Sea Level Pressure  
Sea Level Pressure 30.44 in    
Wind  
Wind Speed 17 mph (NNE)    
Max Wind Speed 25 mph    
Max Gust Speed 34 mph    
Visibility 10 miles    
Events      
Averages and records for this station are not official NWS values.
T = Trace of Precipitation, MM = Missing Value Source: NWS Daily Summary

Daily Weather History Graph

Daily Weather History Graph

Search for Another Location

Airport or City:

Trip Planner

Search our weather history database for the weather conditions in past years. The results will help you decide how hot, cold, wet, or windy it might be!

Date:

Astronomy

Nov. 13, 2013 Rise Set
Actual Time 6:23 AM CST 5:06 PM CST
Civil Twilight 5:58 AM CST 5:31 PM CST
Nautical Twilight 5:29 AM CST 6:00 PM CST
Astronomical Twilight 5:01 AM CST 6:28 PM CST
Moon 2:39 PM CST (11/13) 2:33 AM CST (11/13)
Length of Visible Light 11h 33m
Length of Day
10h 43m
Waxing Gibbous, 85% of the Moon is Illuminated
Nov 13
Waxing Gibbous
Nov 17
Full
Nov 25
Last Quarter
Dec 2
New
Dec 9
First Quarter

Hourly Weather History & Observations

Time (CST) Temp. Windchill Dew Point Humidity Pressure Visibility Wind Dir Wind Speed Gust Speed Precip Events Conditions
12:15 AM 48.2 °F - 37.4 °F 66% 30.43 in 10.0 mi North 20.7 mph 34.5 mph N/A   Clear
12:35 AM 47.5 °F - 36.5 °F 66% 30.43 in 10.0 mi North 20.7 mph 28.8 mph N/A   Clear
12:55 AM 47.3 °F - 35.6 °F 64% 30.42 in 10.0 mi North 20.7 mph 31.1 mph N/A   Clear
1:15 AM 46.6 °F - 34.9 °F 64% 30.43 in 10.0 mi North 19.6 mph 31.1 mph N/A   Clear
1:35 AM 46.4 °F 37.9 °F 34.2 °F 62% 30.42 in 10.0 mi North 25.3 mph 29.9 mph N/A   Clear
1:55 AM 46.0 °F 38.5 °F 33.1 °F 61% 30.42 in 10.0 mi North 19.6 mph 31.1 mph N/A   Clear
2:15 AM 45.5 °F 37.3 °F 32.9 °F 61% 30.42 in 10.0 mi North 21.9 mph 29.9 mph N/A   Clear
2:35 AM 45.3 °F 38.1 °F 32.0 °F 60% 30.43 in 10.0 mi North 17.3 mph 28.8 mph N/A   Clear
2:55 AM 44.6 °F 36.9 °F 32.2 °F 62% 30.44 in 10.0 mi North 18.4 mph 26.5 mph N/A   Clear
3:15 AM 44.6 °F 36.4 °F 32.0 °F 61% 30.43 in 10.0 mi North 20.7 mph 25.3 mph N/A   Clear
3:35 AM 44.2 °F 36.2 °F 30.7 °F 59% 30.43 in 10.0 mi North 19.6 mph 27.6 mph N/A   Clear
3:55 AM 44.1 °F 37.4 °F 30.9 °F 60% 30.43 in 10.0 mi North 13.8 mph 28.8 mph N/A   Clear
4:15 AM 43.0 °F 35.4 °F 31.1 °F 63% 30.44 in 10.0 mi North 16.1 mph 23.0 mph N/A   Clear
4:35 AM 42.4 °F 35.0 °F 30.9 °F 64% 30.44 in 10.0 mi North 15.0 mph 21.9 mph N/A   Clear
4:55 AM 42.3 °F 33.8 °F 30.6 °F 63% 30.45 in 10.0 mi North 18.4 mph 24.2 mph N/A   Clear
5:15 AM 41.9 °F 32.8 °F 30.2 °F 63% 30.44 in 10.0 mi North 20.7 mph 25.3 mph N/A   Clear
5:35 AM 41.9 °F 33.1 °F 29.3 °F 61% 30.46 in 10.0 mi North 19.6 mph 26.5 mph N/A   Clear
5:55 AM 41.9 °F 32.3 °F 28.9 °F 60% 30.46 in 10.0 mi North 23.0 mph 29.9 mph N/A   Clear
6:15 AM 41.4 °F 31.9 °F 28.6 °F 60% 30.46 in 10.0 mi North 21.9 mph 29.9 mph N/A   Clear
6:35 AM 41.0 °F 31.9 °F 28.9 °F 62% 30.47 in 10.0 mi North 19.6 mph 27.6 mph N/A   Clear
6:55 AM 41.0 °F 31.6 °F 28.9 °F 62% 30.48 in 10.0 mi North 20.7 mph 29.9 mph N/A   Clear
7:15 AM 41.9 °F 33.4 °F 29.8 °F 62% 30.48 in 10.0 mi North 18.4 mph 25.3 mph N/A   Clear
7:35 AM 42.8 °F 33.5 °F 30.0 °F 61% 30.48 in 10.0 mi North 23.0 mph 27.6 mph N/A   Clear
7:55 AM 42.3 °F 32.6 °F 29.1 °F 60% 30.49 in 10.0 mi North 24.2 mph 29.9 mph N/A   Clear
8:15 AM 42.8 °F 34.5 °F 29.7 °F 60% 30.49 in 10.0 mi North 18.4 mph 27.6 mph N/A   Clear
8:35 AM 43.9 °F 35.4 °F 29.8 °F 58% 30.49 in 10.0 mi NNE 20.7 mph 27.6 mph N/A   Clear
8:55 AM 44.1 °F 35.4 °F 30.2 °F 58% 30.50 in 10.0 mi North 21.9 mph 31.1 mph N/A   Clear
9:15 AM 44.8 °F 37.1 °F 30.4 °F 57% 30.50 in 10.0 mi NNE 18.4 mph 29.9 mph N/A   Clear
9:35 AM 45.3 °F 37.8 °F 31.1 °F 58% 30.49 in 10.0 mi NNE 18.4 mph 26.5 mph N/A   Clear
9:55 AM 46.4 °F 39.0 °F 31.6 °F 56% 30.49 in 10.0 mi NNE 19.6 mph 25.3 mph N/A   Clear
10:15 AM 46.8 °F - 32.2 °F 57% 30.49 in 10.0 mi NNE 16.1 mph 21.9 mph N/A   Clear
10:35 AM 48.2 °F - 33.3 °F 56% 30.48 in 10.0 mi NE 18.4 mph 23.0 mph N/A   Clear
10:55 AM 49.6 °F - 33.8 °F 54% 30.48 in 10.0 mi NE 17.3 mph 26.5 mph N/A   Clear
11:15 AM 50.0 °F - 33.6 °F 53% 30.47 in 10.0 mi NE 20.7 mph - N/A   Clear
11:35 AM 50.4 °F - 33.3 °F 52% 30.47 in 10.0 mi NE 15.0 mph 25.3 mph N/A   Clear
11:55 AM 50.9 °F - 33.6 °F 52% 30.46 in 10.0 mi NE 18.4 mph 24.2 mph N/A   Clear
12:15 PM 51.8 °F - 34.0 °F 51% 30.45 in 10.0 mi NE 17.3 mph 21.9 mph N/A   Clear
12:35 PM 52.9 °F - 34.0 °F 49% 30.44 in 10.0 mi NE 12.7 mph 19.6 mph N/A   Clear
12:55 PM 53.8 °F - 33.3 °F 46% 30.43 in 10.0 mi NE 13.8 mph 20.7 mph N/A   Clear
1:15 PM 54.3 °F - 33.6 °F 46% 30.42 in 10.0 mi ENE 15.0 mph 20.7 mph N/A   Clear
1:35 PM 54.7 °F - 32.5 °F 43% 30.42 in 10.0 mi NE 15.0 mph 19.6 mph N/A   Clear
1:55 PM 55.0 °F - 31.8 °F 41% 30.41 in 10.0 mi NE 13.8 mph - N/A   Clear
2:15 PM 55.4 °F - 31.8 °F 41% 30.41 in 10.0 mi NE 15.0 mph 20.7 mph N/A   Clear
2:35 PM 55.8 °F - 30.7 °F 39% 30.41 in 10.0 mi NE 15.0 mph - N/A   Clear
2:55 PM 56.1 °F - 30.7 °F 38% 30.41 in 10.0 mi NE 11.5 mph 18.4 mph N/A   Clear
3:15 PM 55.9 °F - 31.3 °F 39% 30.40 in 10.0 mi NE 12.7 mph - N/A   Clear
3:35 PM 55.9 °F - 31.8 °F 40% 30.41 in 10.0 mi NE 12.7 mph - N/A   Clear
3:55 PM 55.8 °F - 32.2 °F 41% 30.41 in 10.0 mi ENE 10.4 mph - N/A   Clear
4:15 PM 54.5 °F - 31.3 °F 41% 30.41 in 10.0 mi ENE 9.2 mph - N/A   Clear
4:35 PM 54.0 °F - 34.0 °F 47% 30.41 in 10.0 mi East 6.9 mph - N/A   Clear
4:55 PM 52.2 °F - 35.1 °F 52% 30.41 in 10.0 mi East 5.8 mph - N/A   Clear
5:15 PM 51.1 °F - 35.6 °F 55% 30.41 in 10.0 mi East 5.8 mph - N/A   Clear
5:35 PM 51.3 °F - 35.6 °F 55% 30.42 in 10.0 mi East 5.8 mph - N/A   Clear
5:55 PM 50.5 °F - 36.1 °F 58% 30.42 in 10.0 mi East 4.6 mph - N/A   Clear
6:15 PM 50.0 °F - 36.5 °F 60% 30.42 in 10.0 mi East 4.6 mph - N/A   Clear
6:35 PM 50.0 °F - 36.5 °F 60% 30.43 in 10.0 mi East 4.6 mph - N/A   Clear
6:55 PM 50.2 °F - 36.3 °F 59% 30.43 in 10.0 mi East 4.6 mph - N/A   Clear
7:15 PM 50.0 °F - 36.7 °F 60% 30.43 in 10.0 mi East 4.6 mph - N/A   Clear
7:35 PM 50.0 °F - 37.2 °F 62% 30.43 in 10.0 mi East 4.6 mph - N/A   Clear
7:55 PM 50.0 °F - 38.1 °F 64% 30.43 in 10.0 mi ENE 6.9 mph - N/A   Clear
8:15 PM 50.9 °F - 38.5 °F 62% 30.44 in 10.0 mi ENE 5.8 mph - N/A   Clear
8:35 PM 50.5 °F - 37.6 °F 61% 30.44 in 10.0 mi ENE 6.9 mph - N/A   Clear
8:55 PM 50.9 °F - 37.4 °F 60% 30.44 in 10.0 mi ENE 6.9 mph - N/A   Clear
9:15 PM 50.5 °F - 37.0 °F 60% 30.43 in 10.0 mi ENE 8.1 mph - N/A   Clear
9:35 PM 50.9 °F - 36.1 °F 57% 30.43 in 10.0 mi ENE 8.1 mph - N/A   Clear
9:55 PM 50.5 °F - 37.4 °F 61% 30.43 in 10.0 mi NE 5.8 mph - N/A   Clear
10:15 PM 45.9 °F 41.7 °F 37.9 °F 74% 30.42 in 10.0 mi NNE 8.1 mph - N/A   Clear
10:35 PM 45.7 °F 42.0 °F 38.3 °F 75% 30.41 in 10.0 mi NNE 6.9 mph - N/A   Clear
10:55 PM 45.5 °F 41.3 °F 38.3 °F 76% 30.40 in 10.0 mi NNE 8.1 mph - N/A   Clear
11:15 PM 45.1 °F 40.3 °F 37.9 °F 76% 30.39 in 10.0 mi NNE 9.2 mph - N/A   Clear
11:35 PM 45.0 °F 40.6 °F 37.8 °F 76% 30.39 in 10.0 mi NNE 8.1 mph - N/A   Clear
11:55 PM 45.1 °F 40.3 °F 37.8 °F 75% 30.38 in 10.0 mi NNE 9.2 mph - N/A   Clear